Location: Rounton
(54.4000°N, 1.3500°W)
Time: 08:21:37
(UTC+00:00)

Vanguard 1 Rocket - Pass Details

Date: 09 December 2021
Orbit: 651 x 4224 km, 34.3° (Epoch: 19 January)

Event Time Altitude Azimuth Distance (km) Brightness Sun altitude
Rises 02:36:32 0° 231° (SW) 4,350 - -46.7°
Reaches altitude 10° 02:39:26 10° 219° (SW) 3,749 - -46.4°
Maximum altitude 02:47:53 29° 164° (SSE) 3,483 - -45.3°
Exits shadow 02:48:53 29° 157° (SSE) 3,604 10.2 -45.2°
Drops below altitude 10° 03:01:47 10° 114° (ESE) 6,270 12.0 -43.5°
Sets 03:08:37 0° 106° (ESE) 7,814 12.7 -42.6°
